[[{"header":{"parameterUnit":"m.s-1","parameterCategory":2,"la1":30.2991,"la2":30.254,"lo1":-89.0895,"lo2":-89.0444,"dy":0.0017,"dx":0.0017,"nx":28,"ny":28,"refTime":"2025-03-22T09:00:00:Z","depth":"0","parameterNumber":2,"parameterNumberName":"U-component_of_CURRENTS"},"data":[0,0,0,0,0,0,0,0,0,0,0,0,0,0,0,0,0,0,0,0,0,0,0,0,0,0,0,0,0,0,0,0,0,0,0,0,0,0,0,0,0,0,0,0,0,0,0,0,0,0,0,0,0,0,0,0,0,0,-0.2225,-0.2225,0,-0.2214,-0.2214,-0.2213,-0.2199,-0.2199,-0.22,-0.22,-0.2076,-0.2073,-0.2069,0,0,0,0,0,0,0,0,0,0,0,0,0,-0.2134,-0.2135,-0.2225,-0.2226,-0.2226,-0.2214,-0.2214,-0.2213,-0.2199,-0.2199,-0.22,-0.2201,-0.2078,-0.2073,-0.2069,0,0,0,0,0,0,0,0,0,0,0,0,0,-0.2146,-0.2136,-0.2225,-0.2223,-0.2223,-0.2215,-0.2213,-0.2212,-0.2199,-0.2199,-0.22,-0.2201,-0.2079,-0.2074,-0.2068,-0.202,0,0,-0.2051,-0.2049,0,0,0,0,0,0,0,0,-0.2146,-0.2149,-0.2223,-0.2223,-0.2224,-0.2215,-0.2136,-0.2145,-0.2199,-0.22,-0.22,-0.2201,-0.2116,-0.2108,-0.2096,-0.2015,-0.2009,-0.2051,-0.2047,-0.2045,-0.2043,0,0,0,0,0,0,0,-0.2145,-0.2149,-0.2213,-0.2224,-0.2224,-0.2189,-0.2192,-0.2137,-0.2147,-0.22,-0.2201,-0.2211,-0.2115,-0.2101,-0.2092,-0.2008,-0.2051,-0.2046,-0.2042,-0.204,-0.1908,-0.1908,0,0,0,0,0,0,-0.2166,-0.2149,-0.2214,-0.2214,-0.2194,-0.2191,-0.2194,-0.2211,-0.215,-0.2145,-0.2211,-0.2211,-0.211,-0.2099,-0.2088,-0.2085,-0.2045,-0.204,-0.2037,-0.1908,-0.1908,-0.1908,0,0,0,0,0,0,-0.2164,-0.2172,-0.2214,-0.2186,-0.219,-0.2194,-0.2212,-0.2211,-0.2205,-0.2161,-0.2152,-0.2209,-0.211,-0.2096,-0.2053,-0.2077,-0.2037,-0.2032,-0.1908,-0.1908,-0.1908,-0.2041,0,0,0,0,0,0,-0.2162,-0.2172,-0.2176,-0.2188,-0.2193,-0.2218,-0.2212,-0.221,-0.2214,-0.2214,-0.2156,-0.2145,-0.211,-0.2061,-0.2047,-0.2069,-0.2028,-0.1908,-0.1908,-0.1908,-0.2036,-0.2045,-0.2052,0,0,0,0,0,-0.2158,-0.2171,-0.2176,-0.2184,-0.2204,-0.2219,-0.2217,-0.2216,-0.2213,-0.2212,-0.2177,-0.2147,-0.2049,-0.2057,-0.204,-0.2061,-0.1909,-0.1908,-0.1908,-0.2033,-0.2043,-0.2052,0,0,0,0,0,0,-0.2126,-0.2172,-0.2178,-0.2201,-0.2214,-0.222,-0.2216,-0.2219,-0.219,-0.2186,-0.214,-0.2126,-0.2096,-0.2049,-0.2059,-0.2018,-0.1975,-0.1971,-0.2075,-0.2084,-0.2092,-0.2103,-0.2023,0,0,0,0,0,-0.2125,-0.2145,-0.218,-0.2191,-0.2204,-0.2209,-0.221,-0.2217,-0.2204,-0.2193,-0.2156,-0.2111,-0.2078,-0.206,-0.201,-0.1985,-0.1981,-0.1985,-0.1993,-0.2001,-0.1995,-0.2098,-0.2118,-0.1906,-0.1906,-0.1906,0,0,-0.2113,-0.214,-0.2149,-0.2185,-0.2191,-0.2211,-0.2209,-0.2222,-0.2232,-0.2179,-0.2161,-0.2127,-0.2072,-0.2054,-0.2037,-0.2024,-0.2041,-0.2,-0.2008,-0.1998,-0.21,-0.2122,-0.2141,-0.1906,-0.1906,-0.1906,0,0,-0.2102,-0.2128,-0.2144,-0.2165,-0.2193,-0.2204,-0.2214,-0.2227,-0.2227,-0.2212,-0.2185,-0.2183,-0.2101,-0.2104,-0.2086,-0.2102,-0.2074,-0.2066,-0.2128,-0.223,-0.225,-0.2267,-0.2229,-0.2243,-0.2082,-0.2082,-0.2082,0,-0.2084,-0.2116,-0.2145,-0.217,-0.2187,-0.2208,-0.2227,-0.2233,-0.2227,-0.2244,-0.2215,-0.2191,-0.2137,-0.2173,-0.2161,-0.2128,-0.2128,-0.2109,-0.2249,-0.2266,-0.2282,-0.2239,-0.2253,-0.2088,-0.2088,-0.2087,-0.2086,0,-0.209,-0.2117,-0.2128,-0.2172,-0.2192,-0.2211,-0.2245,-0.2261,-0.2263,-0.2283,-0.2312,-0.2277,-0.227,-0.226,-0.2197,-0.228,-0.2218,-0.225,-0.2244,-0.2313,-0.226,-0.2272,-0.2097,-0.2095,-0.2093,-0.2092,0,0,-0.204,-0.2119,-0.2119,-0.2148,-0.2198,-0.2219,-0.2255,-0.2306,-0.236,-0.2363,-0.2435,-0.239,-0.2399,-0.2376,-0.2347,-0.2418,-0.2491,-0.2366,-0.2369,-0.2357,-0.262,-0.2447,-0.2441,-0.2573,-0.2578,-0.2581,-0.2517,0,-0.2029,-0.2075,-0.2119,-0.216,-0.2189,-0.2242,-0.2285,-0.2339,-0.2381,-0.2453,-0.2487,-0.2516,-0.244,-0.2449,-0.2513,-0.2498,-0.2536,-0.2498,-0.2525,-0.2523,-0.2391,-0.2456,-0.2324,-0.2248,-0.2528,-0.253,-0.2531,0,-0.2017,-0.2051,-0.2087,-0.2182,-0.2202,-0.2228,-0.2328,-0.2372,-0.2491,-0.2534,-0.261,-0.2629,-0.2678,-0.2636,-0.2685,-0.2664,-0.2624,-0.2627,-0.2627,-0.2431,-0.2375,-0.2231,-0.2258,-0.225,-0.2549,-0.2548,-0.2546,0,-0.1957,-0.2034,-0.206,-0.2085,-0.2188,-0.2218,-0.2269,-0.2385,-0.2445,-0.2584,-0.2638,-0.2744,-0.2743,-0.2809,-0.2704,-0.2728,-0.275,-0.2807,-0.2613,-0.2595,-0.2463,-0.2428,-0.2516,-0.2871,-0.2871,-0.2871,-0.2871,0,-0.193,-0.1953,-0.2032,-0.2044,-0.2102,-0.2182,-0.2268,-0.2349,-0.2481,-0.2553,-0.2653,-0.269,-0.2791,-0.2786,-0.276,-0.2658,-0.2788,-0.2611,-0.2598,-0.2489,-0.2459,-0.2427,-0.2457,-0.2868,-0.2869,-0.2869,-0.287,0,-0.1856,-0.1911,-0.1947,-0.2036,-0.2071,-0.2099,-0.2232,-0.2306,-0.2422,-0.2519,-0.2553,-0.2643,-0.262,-0.2651,-0.2696,-0.2656,-0.2587,-0.2565,-0.2338,-0.23,-0.2159,-0.2199,-0.2225,-0.2165,-0.2415,-0.2411,-0.2407,0,-0.1822,-0.1827,-0.1909,-0.1932,-0.1963,-0.2035,-0.2101,-0.2249,-0.2321,-0.2447,-0.2471,-0.2482,-0.2435,-0.2392,-0.2367,-0.2318,-0.2359,-0.2167,-0.2222,-0.212,-0.2161,-0.2206,-0.2159,-0.2069,-0.2063,-0.2058,-0.2054,0,-0.1734,-0.1756,-0.178,-0.1833,-0.1881,-0.1962,-0.2047,-0.2097,-0.2253,-0.2294,-0.2286,-0.2256,-0.2189,-0.2073,-0.1996,-0.1969,-0.2126,-0.2061,-0.2091,-0.1993,-0.1924,-0.1865,-0.2047,-0.201,-0.2015,-0.2018,-0.202,-0.2022,-0.1647,-0.1641,-0.1672,-0.171,-0.1781,-0.1837,-0.1857,-0.1932,-0.1973,-0.1991,-0.2044,-0.1949,-0.1903,-0.1773,-0.1724,-0.1635,-0.1762,-0.1652,-0.1726,-0.1792,-0.1704,-0.1696,-0.1574,-0.1576,-0.1578,-0.1579,-0.158,0,-0.1527,-0.1531,-0.1559,-0.1599,-0.1627,-0.171,-0.1789,-0.1763,-0.1714,-0.1741,-0.1687,-0.1629,-0.1494,-0.1483,-0.1412,-0.1359,-0.1375,-0.1354,-0.1451,-0.1435,-0.1537,-0.149,-0.1183,-0.1183,-0.1183,-0.1183,-0.1183,-0.1183,-0.1461,-0.1428,-0.1441,-0.1422,-0.1461,-0.1452,-0.1463,-0.1407,-0.1399,-0.1284,-0.1263,-0.1297,-0.1322,-0.1439,-0.135,-0.1277,-0.131,-0.1234,-0.1311,-0.1442,-0.1478,-0.1513,-0.1479,-0.1174,-0.1174,-0.1141,-0.1141,-0.1141]},{"header":{"parameterUnit":"m.s-1","parameterCategory":2,"la1":30.2991,"la2":30.254,"lo1":-89.0895,"lo2":-89.0444,"dy":0.0017,"dx":0.0017,"nx":28,"ny":28,"refTime":"2025-03-22T09:00:00:Z","depth":"0","parameterNumber":3,"parameterNumberName":"V-component_of_CURRENTS"},"data":[0,0,0,0,0,0,0,0,0,0,0,0,0,0,0,0,0,0,0,0,0,0,0,0,0,0,0,0,0,0,0,0,0,0,0,0,0,0,0,0,0,0,0,0,0,0,0,0,0,0,0,0,0,0,0,0,0,0,0.0074,0.0075,0,0.0203,0.0204,0.0206,0.0272,0.0271,0.0271,0.0271,0.0449,0.0453,0.0458,0,0,0,0,0,0,0,0,0,0,0,0,0,0.0015,0.0015,0.0074,0.0075,0.0076,0.0202,0.0204,0.0207,0.0272,0.0271,0.0271,0.0271,0.0447,0.0453,0.0459,0,0,0,0,0,0,0,0,0,0,0,0,0,0.0084,0.0015,0.0073,0.0122,0.0127,0.0202,0.0204,0.0207,0.0272,0.0271,0.0271,0.0271,0.0445,0.0452,0.046,0.0513,0,0,0.0482,0.0486,0,0,0,0,0,0,0,0,0.008,0.0087,0.0113,0.0118,0.0124,0.0218,0.0249,0.0311,0.0272,0.022,0.0271,0.027,0.0374,0.0387,0.0416,0.0521,0.0529,0.0483,0.0488,0.0491,0.0493,0,0,0,0,0,0,0,0.0075,0.0082,0.0128,0.0115,0.0121,0.0181,0.019,0.0262,0.0301,0.0225,0.0229,0.0238,0.0378,0.0409,0.0421,0.0532,0.0483,0.0489,0.0494,0.0497,0.0684,0.0684,0,0,0,0,0,0,0.0046,0.0077,0.0124,0.0132,0.0097,0.0182,0.0192,0.0191,0.03,0.0314,0.0238,0.0241,0.0397,0.0412,0.0428,0.0479,0.0491,0.0498,0.0502,0.0684,0.0684,0.0685,0,0,0,0,0,0,0.0044,0.0049,0.0119,0.0106,0.0118,0.0182,0.0181,0.0194,0.0223,0.0309,0.0325,0.0254,0.0397,0.0417,0.0489,0.0487,0.0501,0.0508,0.0683,0.0684,0.0684,0.0594,0,0,0,0,0,0,0.0042,0.0047,0.0038,0.0103,0.0118,0.0153,0.0182,0.0196,0.0228,0.0232,0.0328,0.0344,0.0398,0.0477,0.0496,0.0497,0.0514,0.0682,0.0683,0.0684,0.0596,0.0591,0.0587,0,0,0,0,0,0.0039,0.0024,0.0036,0.0042,0.0102,0.0152,0.0166,0.0213,0.0228,0.0239,0.0305,0.0341,0.0496,0.0484,0.0506,0.0509,0.0682,0.0683,0.0684,0.0598,0.0592,0.0587,0,0,0,0,0,0,-0.0005,0.0031,0.0046,0.0042,0.0088,0.0162,0.0175,0.021,0.0272,0.0276,0.0356,0.0377,0.0438,0.0491,0.0475,0.0567,0.0592,0.0598,0.052,0.0515,0.051,0.0462,0.052,0,0,0,0,0,-0.0021,-0.0026,0.0028,0.0025,0.0044,0.011,0.0136,0.0169,0.0231,0.0257,0.0323,0.0396,0.0462,0.0499,0.0566,0.0623,0.065,0.0639,0.0634,0.063,0.0606,0.064,0.0636,0.0688,0.0688,0.0688,0,0,-0.0039,-0.0021,-0.0023,0.0015,0.0055,0.008,0.0125,0.0159,0.0181,0.0269,0.0319,0.0386,0.0474,0.0531,0.0563,0.0574,0.0633,0.0631,0.0627,0.0605,0.0641,0.0635,0.063,0.0689,0.0689,0.0689,0,0,-0.0073,-0.0061,-0.007,-0.0036,0.0012,0.0053,0.0058,0.013,0.0162,0.0223,0.0285,0.0342,0.0455,0.0505,0.0548,0.0562,0.0608,0.0591,0.053,0.0564,0.0559,0.0555,0.059,0.059,0.0588,0.0588,0.0588,0,-0.0096,-0.0103,-0.0062,-0.0053,-0.0034,0.0035,0.0041,0.0089,0.0174,0.0189,0.0225,0.0356,0.0437,0.0487,0.0496,0.0549,0.0574,0.054,0.0554,0.0551,0.0548,0.0585,0.0586,0.0584,0.0584,0.0585,0.0585,0,-0.0127,-0.0128,-0.0129,-0.0103,-0.0073,-0.0057,0.0008,0.0038,0.0084,0.0127,0.0183,0.0287,0.0355,0.0398,0.0459,0.048,0.0507,0.0541,0.0556,0.0536,0.0578,0.058,0.0578,0.0579,0.058,0.0581,0,0,-0.0188,-0.0161,-0.0161,-0.0164,-0.0101,-0.0085,-0.0053,-0.0015,-0.002,0.0069,0.0067,0.0195,0.0231,0.0282,0.036,0.0396,0.042,0.0453,0.0457,0.0466,0.0491,0.0531,0.0539,0.0452,0.0451,0.0451,0.053,0,-0.0225,-0.0244,-0.0208,-0.0216,-0.0217,-0.0153,-0.0138,-0.0095,-0.005,-0.0034,0.0056,0.0099,0.0194,0.0222,0.0271,0.0387,0.042,0.0395,0.0527,0.053,0.0551,0.054,0.058,0.0655,0.0532,0.0533,0.0533,0,-0.0265,-0.0276,-0.0297,-0.0294,-0.0289,-0.0278,-0.0266,-0.0239,-0.0194,-0.0161,-0.0114,-0.0047,0.0035,0.0108,0.0266,0.0245,0.035,0.0435,0.0441,0.0504,0.0575,0.0657,0.0664,0.0841,0.0537,0.0537,0.0536,0,-0.0337,-0.0338,-0.0369,-0.0361,-0.0338,-0.034,-0.0323,-0.0285,-0.0285,-0.0246,-0.0252,-0.0152,-0.0097,0.0036,0.024,0.0247,0.0401,0.0439,0.0565,0.057,0.0642,0.0653,0.0813,0.0517,0.0517,0.0517,0.0516,0,-0.0392,-0.0414,-0.041,-0.0421,-0.0467,-0.0416,-0.0452,-0.0422,-0.0405,-0.0429,-0.0326,-0.0312,-0.0115,0.0006,0.0184,0.039,0.0368,0.0541,0.0587,0.0615,0.0622,0.081,0.0872,0.052,0.0519,0.0518,0.0518,0,-0.0449,-0.0449,-0.0486,-0.049,-0.0497,-0.0523,-0.0527,-0.0557,-0.0522,-0.0553,-0.0545,-0.0428,-0.0253,-0.0051,0.0179,0.0324,0.062,0.059,0.0612,0.0658,0.0923,0.0977,0.1138,0.123,0.0723,0.0724,0.0725,0,-0.0476,-0.0502,-0.0541,-0.0577,-0.0577,-0.0609,-0.0638,-0.0613,-0.0643,-0.0612,-0.0637,-0.0495,-0.0372,-0.0016,0.0266,0.0557,0.0696,0.0744,0.0762,0.0933,0.1028,0.1061,0.1129,0.0832,0.0834,0.0836,0.0837,0,-0.0518,-0.0534,-0.0568,-0.0649,-0.0693,-0.075,-0.0783,-0.0826,-0.0809,-0.0802,-0.0742,-0.0637,-0.0304,0.0053,0.0416,0.0598,0.0863,0.0783,0.0961,0.1116,0.1161,0.1274,0.0788,0.0851,0.085,0.0849,0.0848,0.0848,-0.0543,-0.0586,-0.064,-0.0718,-0.0787,-0.0874,-0.0923,-0.0942,-0.0965,-0.0928,-0.0804,-0.0576,-0.0096,0.0436,0.063,0.1047,0.0999,0.1184,0.1232,0.1249,0.1344,0.0881,0.0995,0.0994,0.0994,0.0993,0.0993,0,-0.0574,-0.0626,-0.0704,-0.0808,-0.091,-0.0921,-0.1012,-0.1034,-0.1048,-0.0908,-0.0777,-0.02,0.0278,0.0725,0.1288,0.1504,0.1544,0.1609,0.1683,0.1729,0.1336,0.1349,0.1543,0.1543,0.1543,0.1542,0.1542,0.1542,-0.0592,-0.0674,-0.0722,-0.0891,-0.0968,-0.1089,-0.114,-0.1131,-0.1035,-0.0729,-0.0382,-0.0081,0.0559,0.1389,0.1905,0.195,0.214,0.2099,0.2197,0.1952,0.1917,0.1883,0.1914,0.2223,0.2224,0.2591,0.2594,0.2597]}],[{"header":{"parameterUnit":"m.s-1","parameterCategory":2,"la1":30.2991,"la2":30.254,"lo1":-89.0895,"lo2":-89.0444,"dy":0.0017,"dx":0.0017,"nx":28,"ny":28,"refTime":"2025-03-22T09:00:00:Z","depth":"2","parameterNumber":2,"parameterNumberName":"U-component_of_CURRENTS"},"data":[0,0,0,0,0,0,0,0,0,0,0,0,0,0,0,0,0,0,0,0,0,0,0,0,0,0,0,0,0,0,0,0,0,0,0,0,0,0,0,0,0,0,0,0,0,0,0,0,0,0,0,0,0,0,0,0,0,0,-0.2318,-0.2319,0,-0.231,-0.231,-0.2309,-0.2288,-0.2288,-0.2289,-0.2289,-0.2195,-0.2192,-0.219,0,0,0,0,0,0,0,0,0,0,0,0,0,-0.2225,-0.2227,-0.2318,-0.2319,-0.2319,-0.231,-0.231,-0.2309,-0.2288,-0.2288,-0.2289,-0.2289,-0.2196,-0.2193,-0.219,0,0,0,0,0,0,0,0,0,0,0,0,0,-0.224,-0.2228,-0.2318,-0.2312,-0.2312,-0.231,-0.231,-0.2309,-0.2288,-0.2288,-0.2289,-0.2289,-0.2197,-0.2193,-0.2189,-0.2161,0,0,-0.2177,-0.2175,0,0,0,0,0,0,0,0,-0.224,-0.2243,-0.2313,-0.2313,-0.2313,-0.2306,-0.2243,-0.2257,-0.2288,-0.2291,-0.2289,-0.2289,-0.2228,-0.2222,-0.2212,-0.2156,-0.2152,-0.2177,-0.2174,-0.2173,-0.2172,0,0,0,0,0,0,0,-0.2239,-0.2243,-0.2308,-0.2313,-0.2314,-0.228,-0.2282,-0.2245,-0.2252,-0.229,-0.229,-0.23,-0.2227,-0.2216,-0.2209,-0.2151,-0.2177,-0.2173,-0.2171,-0.2169,-0.2063,-0.2063,0,0,0,0,0,0,-0.2258,-0.2243,-0.2309,-0.2309,-0.2283,-0.2282,-0.2285,-0.2303,-0.2254,-0.2249,-0.23,-0.2299,-0.2222,-0.2214,-0.2206,-0.2193,-0.2173,-0.2169,-0.2167,-0.2064,-0.2063,-0.2063,0,0,0,0,0,0,-0.2256,-0.2264,-0.2309,-0.228,-0.2284,-0.2285,-0.2304,-0.2303,-0.2294,-0.2263,-0.2255,-0.2295,-0.2222,-0.2211,-0.2176,-0.2188,-0.2167,-0.2164,-0.2064,-0.2063,-0.2063,-0.2151,0,0,0,0,0,0,-0.2253,-0.2263,-0.2264,-0.2282,-0.2287,-0.2316,-0.2305,-0.2303,-0.2303,-0.2302,-0.2256,-0.2248,-0.2222,-0.2182,-0.2172,-0.2182,-0.2161,-0.2065,-0.2064,-0.2063,-0.2148,-0.2153,-0.2157,0,0,0,0,0,-0.225,-0.2264,-0.2264,-0.2271,-0.2294,-0.2317,-0.2315,-0.2311,-0.2303,-0.2302,-0.2269,-0.2249,-0.2169,-0.2178,-0.2167,-0.2176,-0.2065,-0.2064,-0.2063,-0.2146,-0.2152,-0.2157,0,0,0,0,0,0,-0.2214,-0.2264,-0.2265,-0.2289,-0.2303,-0.2316,-0.231,-0.2312,-0.2286,-0.2277,-0.2243,-0.2232,-0.2202,-0.217,-0.2181,-0.2139,-0.2113,-0.211,-0.2181,-0.2186,-0.219,-0.2206,-0.2157,0,0,0,0,0,-0.2211,-0.2231,-0.227,-0.2279,-0.2293,-0.2299,-0.23,-0.2306,-0.2298,-0.2287,-0.2255,-0.2217,-0.2187,-0.2173,-0.2132,-0.2112,-0.2109,-0.2108,-0.2112,-0.2117,-0.2119,-0.2214,-0.2229,-0.2059,-0.2059,-0.2059,0,0,-0.2193,-0.2224,-0.223,-0.2272,-0.2277,-0.2303,-0.2298,-0.2312,-0.2324,-0.2278,-0.226,-0.2223,-0.218,-0.216,-0.2144,-0.2139,-0.2139,-0.2115,-0.212,-0.2119,-0.2215,-0.2232,-0.2248,-0.2059,-0.2059,-0.2059,0,0,-0.2181,-0.2203,-0.2221,-0.2246,-0.2277,-0.2292,-0.2302,-0.2318,-0.2315,-0.2304,-0.2272,-0.2255,-0.2196,-0.2187,-0.2172,-0.2173,-0.2155,-0.2145,-0.2192,-0.2286,-0.2302,-0.2317,-0.2248,-0.2256,-0.2158,-0.2158,-0.2158,0,-0.2151,-0.2195,-0.2223,-0.2256,-0.2279,-0.2294,-0.2323,-0.2327,-0.2323,-0.2332,-0.2306,-0.2271,-0.2219,-0.2239,-0.2216,-0.2189,-0.2187,-0.2185,-0.2299,-0.2314,-0.2328,-0.2254,-0.2262,-0.2162,-0.2162,-0.2161,-0.2161,0,-0.2166,-0.2199,-0.2212,-0.2265,-0.229,-0.2315,-0.2351,-0.2359,-0.2357,-0.237,-0.238,-0.2337,-0.2322,-0.2303,-0.2245,-0.2306,-0.2246,-0.2295,-0.2302,-0.2352,-0.2267,-0.2274,-0.2168,-0.2167,-0.2165,-0.2164,0,0,-0.2096,-0.2204,-0.2202,-0.2241,-0.2303,-0.2329,-0.2362,-0.2408,-0.2448,-0.2441,-0.2496,-0.2433,-0.2423,-0.2401,-0.2362,-0.2423,-0.2457,-0.2386,-0.2389,-0.2341,-0.2555,-0.2415,-0.2407,-0.2558,-0.2562,-0.2565,-0.2426,0,-0.2089,-0.216,-0.2216,-0.2271,-0.2316,-0.2364,-0.2403,-0.2446,-0.2476,-0.2527,-0.2533,-0.2544,-0.2463,-0.2457,-0.2507,-0.2488,-0.2493,-0.2481,-0.2491,-0.2487,-0.2385,-0.242,-0.224,-0.2098,-0.2433,-0.2434,-0.2435,0,-0.2079,-0.2136,-0.2193,-0.2309,-0.2332,-0.2355,-0.2443,-0.2482,-0.2566,-0.2596,-0.2643,-0.2649,-0.2668,-0.2628,-0.2641,-0.2644,-0.2573,-0.2564,-0.2562,-0.2416,-0.2366,-0.2117,-0.2097,-0.2446,-0.2445,-0.2445,-0.2444,0,-0.2014,-0.2121,-0.2167,-0.2199,-0.2321,-0.2341,-0.2388,-0.2478,-0.2531,-0.263,-0.2675,-0.2747,-0.2728,-0.2773,-0.2647,-0.2678,-0.2661,-0.2721,-0.2512,-0.2495,-0.233,-0.2294,-0.2737,-0.2737,-0.2738,-0.2738,-0.2739,0,-0.1992,-0.2024,-0.2131,-0.2152,-0.2208,-0.2298,-0.2368,-0.2429,-0.2545,-0.2576,-0.2677,-0.2688,-0.2774,-0.2749,-0.27,-0.2574,-0.2689,-0.2503,-0.2487,-0.2338,-0.2306,-0.2623,-0.2612,-0.2733,-0.2734,-0.2735,-0.2736,0,-0.1899,-0.1978,-0.2031,-0.2141,-0.2173,-0.2191,-0.2324,-0.2393,-0.2487,-0.2535,-0.2557,-0.2641,-0.2593,-0.2613,-0.2614,-0.2565,-0.2527,-0.243,-0.2151,-0.2107,-0.2275,-0.227,-0.2263,-0.2258,-0.2253,-0.225,-0.2247,0,-0.1859,-0.1875,-0.1978,-0.2006,-0.2039,-0.2108,-0.2174,-0.232,-0.2385,-0.2445,-0.2452,-0.2439,-0.2368,-0.2322,-0.2275,-0.2195,-0.2295,-0.1974,-0.2038,-0.226,-0.2245,-0.2246,-0.2246,-0.1795,-0.1788,-0.1783,-0.1778,0,-0.1758,-0.178,-0.1822,-0.1887,-0.1938,-0.2033,-0.211,-0.2125,-0.224,-0.2286,-0.2233,-0.2184,-0.2097,-0.1959,-0.1866,-0.1812,-0.2016,-0.1861,-0.2224,-0.1955,-0.1813,-0.18,-0.1817,-0.173,-0.1735,-0.1739,-0.1741,-0.1743,-0.1649,-0.1644,-0.1698,-0.1747,-0.1825,-0.1859,-0.1842,-0.1937,-0.1958,-0.1912,-0.1945,-0.1832,-0.1811,-0.1612,-0.151,-0.1467,-0.1627,-0.1605,-0.1625,-0.165,-0.1634,-0.1496,-0.1338,-0.1341,-0.1343,-0.1345,-0.1346,0,-0.152,-0.153,-0.157,-0.1627,-0.1672,-0.1756,-0.1756,-0.1715,-0.163,-0.1641,-0.1593,-0.1392,-0.1276,-0.127,-0.112,-0.1104,-0.1136,-0.1074,-0.1127,-0.1173,-0.1214,-0.1182,-0.0762,-0.0761,-0.0759,-0.0758,0,0,-0.145,-0.143,-0.1457,-0.1457,-0.1498,-0.1453,-0.138,-0.1318,-0.1282,-0.1172,-0.1137,-0.1215,-0.122,-0.0999,-0.0941,-0.0823,-0.0995,-0.0779,-0.1242,-0.1347,-0.1387,-0.1505,-0.1502,0,0,0,0,0]},{"header":{"parameterUnit":"m.s-1","parameterCategory":2,"la1":30.2991,"la2":30.254,"lo1":-89.0895,"lo2":-89.0444,"dy":0.0017,"dx":0.0017,"nx":28,"ny":28,"refTime":"2025-03-22T09:00:00:Z","depth":"2","parameterNumber":3,"parameterNumberName":"V-component_of_CURRENTS"},"data":[0,0,0,0,0,0,0,0,0,0,0,0,0,0,0,0,0,0,0,0,0,0,0,0,0,0,0,0,0,0,0,0,0,0,0,0,0,0,0,0,0,0,0,0,0,0,0,0,0,0,0,0,0,0,0,0,0,0,-0.0627,-0.0626,0,-0.0506,-0.0504,-0.0502,-0.0449,-0.045,-0.045,-0.0451,-0.0298,-0.0294,-0.0289,0,0,0,0,0,0,0,0,0,0,0,0,0,-0.0641,-0.0642,-0.0627,-0.0626,-0.0625,-0.0506,-0.0504,-0.0502,-0.0449,-0.045,-0.045,-0.0451,-0.03,-0.0294,-0.0289,0,0,0,0,0,0,0,0,0,0,0,0,0,-0.0585,-0.0642,-0.0627,-0.0587,-0.0583,-0.0507,-0.0504,-0.0501,-0.0449,-0.045,-0.0451,-0.0451,-0.0301,-0.0295,-0.0288,-0.0227,0,0,-0.0267,-0.0264,0,0,0,0,0,0,0,0,-0.0589,-0.0584,-0.0594,-0.059,-0.0585,-0.0498,-0.0453,-0.041,-0.0449,-0.0495,-0.0451,-0.0452,-0.0364,-0.0352,-0.0321,-0.022,-0.0213,-0.0266,-0.0262,-0.0259,-0.0257,0,0,0,0,0,0,0,-0.0593,-0.0588,-0.0574,-0.0593,-0.0588,-0.0518,-0.0512,-0.0444,-0.0422,-0.0491,-0.0488,-0.0482,-0.0361,-0.0328,-0.0317,-0.0211,-0.0266,-0.026,-0.0256,-0.0253,-0.0056,-0.0055,0,0,0,0,0,0,-0.0625,-0.0593,-0.0578,-0.0571,-0.0594,-0.0518,-0.0511,-0.0521,-0.0423,-0.0411,-0.0481,-0.048,-0.0339,-0.0325,-0.0312,-0.024,-0.0259,-0.0252,-0.0248,-0.0057,-0.0056,-0.0055,0,0,0,0,0,0,-0.0626,-0.0626,-0.0583,-0.0581,-0.0572,-0.0518,-0.0529,-0.0518,-0.049,-0.0417,-0.0403,-0.0466,-0.034,-0.0321,-0.0251,-0.0234,-0.0249,-0.0243,-0.0059,-0.0057,-0.0056,-0.0092,0,0,0,0,0,0,-0.0628,-0.0627,-0.064,-0.0585,-0.0574,-0.0546,-0.0528,-0.0515,-0.0487,-0.0484,-0.0399,-0.0385,-0.0339,-0.0261,-0.0244,-0.0224,-0.0237,-0.006,-0.0058,-0.0056,-0.0092,-0.0092,-0.0092,0,0,0,0,0,-0.0629,-0.0647,-0.0642,-0.064,-0.0596,-0.0546,-0.0533,-0.0493,-0.0486,-0.0471,-0.0412,-0.0388,-0.0237,-0.0254,-0.0234,-0.0212,-0.0061,-0.0059,-0.0056,-0.0093,-0.0092,-0.0092,0,0,0,0,0,0,-0.0656,-0.0642,-0.0636,-0.0649,-0.0606,-0.054,-0.052,-0.0496,-0.0435,-0.0433,-0.0366,-0.0348,-0.0281,-0.0239,-0.026,-0.015,-0.0147,-0.0141,-0.0182,-0.0181,-0.0181,-0.0188,-0.0232,0,0,0,0,0,-0.0672,-0.0684,-0.0647,-0.0652,-0.0634,-0.0577,-0.0551,-0.0527,-0.047,-0.0445,-0.0389,-0.0322,-0.0252,-0.0214,-0.0151,-0.0083,-0.0046,-0.0058,-0.0058,-0.0058,-0.005,0.003,0.0038,-0.0047,-0.0047,-0.0047,0,0,-0.0681,-0.0676,-0.0681,-0.0659,-0.0618,-0.0592,-0.0562,-0.0528,-0.0499,-0.0436,-0.0377,-0.0319,-0.0235,-0.0164,-0.013,-0.0128,-0.0018,-0.0055,-0.0056,-0.0047,0.0034,0.0042,0.0049,-0.0046,-0.0046,-0.0046,0,0,-0.0704,-0.0701,-0.0716,-0.0683,-0.0643,-0.0603,-0.06,-0.0539,-0.0504,-0.0444,-0.0388,-0.0312,-0.0224,-0.0145,-0.0097,-0.0051,-0.0023,-0.0048,-0.0045,0.0032,0.004,0.0047,0.0079,0.0089,-0.0045,-0.0045,-0.0045,0,-0.0714,-0.0737,-0.0705,-0.0699,-0.0676,-0.0615,-0.0606,-0.055,-0.0476,-0.044,-0.0438,-0.0278,-0.0206,-0.0094,-0.0079,-0.0048,-0.0026,-0.0057,0.0032,0.004,0.0048,0.0079,0.0091,-0.0046,-0.0046,-0.0046,-0.0046,0,-0.0745,-0.0752,-0.0747,-0.0729,-0.0694,-0.0674,-0.0605,-0.056,-0.0519,-0.0468,-0.0369,-0.0265,-0.017,-0.0136,-0.0089,0.0008,-0.0005,0.0017,0.0025,0.0054,0.0085,0.0098,-0.0048,-0.0048,-0.0047,-0.0047,0,0,-0.0775,-0.0779,-0.0769,-0.0774,-0.0713,-0.0688,-0.0626,-0.0555,-0.0519,-0.0434,-0.0381,-0.0231,-0.0184,-0.0124,-0.005,0.0025,0.0102,0.0036,0.004,0.0056,0.023,0.0239,0.0254,0.0125,0.0128,0.013,0.0218,0,-0.0802,-0.0832,-0.0806,-0.0796,-0.08,-0.072,-0.0668,-0.0591,-0.0525,-0.0458,-0.0328,-0.025,-0.0176,-0.0135,-0.0041,0.0064,0.0138,0.0074,0.021,0.0214,0.0211,0.0272,0.0242,0.032,0.0231,0.0233,0.0235,0,-0.0824,-0.085,-0.0871,-0.0851,-0.0839,-0.0808,-0.0722,-0.0672,-0.0548,-0.0494,-0.0384,-0.0307,-0.0155,-0.0119,0.0097,0.0042,0.0138,0.0215,0.022,0.0256,0.025,0.0285,0.0347,0.0257,0.0255,0.0254,0.0252,0,-0.0871,-0.0876,-0.0906,-0.0897,-0.0864,-0.0832,-0.079,-0.0681,-0.064,-0.0515,-0.0492,-0.0311,-0.0234,-0.0071,0.0108,0.0096,0.0308,0.0317,0.0418,0.0417,0.0437,0.0434,0.047,0.0469,0.0469,0.0469,0.0469,0,-0.0913,-0.0915,-0.0932,-0.0945,-0.0941,-0.089,-0.0852,-0.0777,-0.0696,-0.0643,-0.0515,-0.0442,-0.0221,-0.0077,0.0087,0.0296,0.0307,0.0436,0.046,0.042,0.0415,0.04,0.0391,0.0472,0.0471,0.0471,0.047,0,-0.0929,-0.0954,-0.0978,-0.0976,-0.0967,-0.0954,-0.0902,-0.0886,-0.0796,-0.073,-0.0697,-0.0537,-0.0334,-0.0129,0.013,0.0262,0.0462,0.053,0.0446,0.046,0.0514,0.0502,0.0649,0.0651,0.0652,0.0653,0.0654,0,-0.0933,-0.0964,-0.0998,-0.1023,-0.1015,-0.0999,-0.0993,-0.0924,-0.091,-0.0767,-0.0752,-0.0568,-0.0407,-0.0059,0.0209,0.0485,0.0501,0.0599,0.0605,0.0534,0.0542,0.0528,0.0514,0.06,0.06,0.06,0.0601,0,-0.0931,-0.0949,-0.0985,-0.1055,-0.1074,-0.1097,-0.1084,-0.1067,-0.0974,-0.0923,-0.0791,-0.0656,-0.0325,-0.0025,0.0305,0.0468,0.0553,0.0613,0.0598,0.0554,0.0495,0.0499,0.0487,0.0604,0.0603,0.0603,0.0603,0.0603,-0.0903,-0.0938,-0.1014,-0.1072,-0.1117,-0.1156,-0.1149,-0.1136,-0.1092,-0.0946,-0.0811,-0.0576,-0.0307,0.0176,0.0401,0.0606,0.0613,0.0675,0.0672,0.0669,0.0643,0.0589,0.0708,0.0708,0.0709,0.0709,0.0709,0,-0.09,-0.0955,-0.1024,-0.1124,-0.121,-0.1206,-0.1196,-0.1173,-0.1105,-0.0928,-0.077,-0.0435,-0.0104,0.0175,0.0502,0.0687,0.0671,0.0711,0.0658,0.0655,0.0652,0.0624,0.0685,0.0685,0.0685,0.0686,0,0,-0.0902,-0.0988,-0.1052,-0.1195,-0.125,-0.1302,-0.1274,-0.1202,-0.1066,-0.0877,-0.068,-0.0395,-0.0063,0.0166,0.039,0.055,0.0552,0.0559,0.0561,0.047,0.0464,0.0617,0.0567,0,0,0,0,0]}],[{"header":{"parameterUnit":"m.s-1","parameterCategory":2,"la1":30.2991,"la2":30.254,"lo1":-89.0895,"lo2":-89.0444,"dy":0.0017,"dx":0.0017,"nx":28,"ny":28,"refTime":"2025-03-22T09:00:00:Z","depth":"4","parameterNumber":2,"parameterNumberName":"U-component_of_CURRENTS"},"data":[0,0,0,0,0,0,0,0,0,0,0,0,0,0,0,0,0,0,0,0,0,0,0,0,0,0,0,0,0,0,0,0,0,0,0,0,0,0,0,0,0,0,0,0,0,0,0,0,0,0,0,0,0,0,0,0,0,0,-0.0845,-0.0846,0,-0.0951,-0.0952,-0.0953,-0.1013,-0.1013,-0.1013,-0.1013,-0.113,-0.1133,-0.1136,0,0,0,0,0,0,0,0,0,0,0,0,0,-0.0841,-0.084,-0.0845,-0.0846,-0.0847,-0.095,-0.0952,-0.0954,-0.1013,-0.1013,-0.1013,-0.1013,-0.1129,-0.1133,-0.1137,0,0,0,0,0,0,0,0,0,0,0,0,0,-0.0886,-0.084,-0.0845,-0.0888,-0.0893,-0.095,-0.0952,-0.0954,-0.1013,-0.1013,-0.1013,-0.1013,-0.1128,-0.1133,-0.1137,-0.1164,0,0,-0.1151,-0.1153,0,0,0,0,0,0,0,0,-0.0883,-0.0886,-0.0881,-0.0885,-0.0891,-0.0967,-0.0994,-0.1024,-0.1013,-0.0969,-0.1013,-0.1013,-0.1076,-0.1085,-0.1107,-0.117,-0.1175,-0.1152,-0.1154,-0.1156,-0.1158,0,0,0,0,0,0,0,-0.088,-0.0883,-0.0889,-0.0882,-0.0888,-0.0952,-0.0958,-0.1001,-0.1022,-0.0973,-0.0977,-0.0986,-0.1079,-0.1102,-0.111,-0.1177,-0.1151,-0.1156,-0.1158,-0.116,-0.1377,-0.138,0,0,0,0,0,0,-0.0855,-0.0878,-0.0885,-0.0892,-0.0885,-0.0952,-0.0958,-0.0944,-0.1022,-0.1033,-0.0986,-0.0989,-0.1094,-0.1104,-0.1114,-0.1226,-0.1156,-0.1161,-0.1163,-0.1374,-0.1378,-0.1381,0,0,0,0,0,0,-0.0854,-0.0853,-0.0881,-0.0888,-0.0896,-0.095,-0.0936,-0.0946,-0.1005,-0.1031,-0.1043,-0.1037,-0.1095,-0.1108,-0.1182,-0.1227,-0.1163,-0.1167,-0.1371,-0.1375,-0.1379,-0.14,0,0,0,0,0,0,-0.0853,-0.0852,-0.0851,-0.0885,-0.0894,-0.0938,-0.0936,-0.0948,-0.1007,-0.1012,-0.1079,-0.1087,-0.1096,-0.1176,-0.1187,-0.1233,-0.1171,-0.1367,-0.1373,-0.1378,-0.1396,-0.1405,-0.1413,0,0,0,0,0,-0.0852,-0.0856,-0.0849,-0.0852,-0.0884,-0.0939,-0.0951,-0.0992,-0.1009,-0.1045,-0.1088,-0.1087,-0.122,-0.1181,-0.1194,-0.1242,-0.1364,-0.1371,-0.1378,-0.1392,-0.1403,-0.1413,0,0,0,0,0,0,-0.0857,-0.0863,-0.0857,-0.0861,-0.0903,-0.0949,-0.0985,-0.1016,-0.108,-0.1079,-0.1118,-0.1131,-0.1213,-0.1235,-0.1192,-0.1326,-0.1296,-0.1305,-0.1303,-0.1313,-0.1322,-0.1301,-0.1174,0,0,0,0,0,-0.0851,-0.0845,-0.0877,-0.0877,-0.0903,-0.0951,-0.0984,-0.1002,-0.1053,-0.1083,-0.115,-0.1204,-0.1247,-0.1285,-0.1329,-0.1403,-0.1401,-0.1449,-0.1457,-0.1464,-0.146,-0.1463,-0.1469,-0.1403,-0.1403,-0.1403,0,0,-0.084,-0.085,-0.0841,-0.0877,-0.0911,-0.0954,-0.0973,-0.1017,-0.1062,-0.1084,-0.1195,-0.1236,-0.1274,-0.1349,-0.139,-0.1376,-0.1495,-0.1472,-0.1477,-0.147,-0.147,-0.1476,-0.1481,-0.1408,-0.1407,-0.1406,0,0,-0.0841,-0.084,-0.0851,-0.0896,-0.0944,-0.0966,-0.099,-0.1067,-0.1117,-0.121,-0.1229,-0.1304,-0.1408,-0.1436,-0.1457,-0.1548,-0.1534,-0.1575,-0.1604,-0.1607,-0.1611,-0.1614,-0.1661,-0.1668,-0.1584,-0.1584,-0.1584,0,-0.084,-0.0851,-0.087,-0.0918,-0.0963,-0.098,-0.1033,-0.1073,-0.1172,-0.1223,-0.1252,-0.1414,-0.1447,-0.1514,-0.1539,-0.1565,-0.1567,-0.1552,-0.1612,-0.1615,-0.1618,-0.1664,-0.1672,-0.1586,-0.1585,-0.1585,-0.1585,0,-0.0857,-0.0887,-0.0911,-0.0957,-0.1012,-0.1052,-0.1109,-0.1143,-0.121,-0.1289,-0.1413,-0.1477,-0.1577,-0.16,-0.1591,-0.1643,-0.1641,-0.161,-0.1569,-0.1624,-0.1673,-0.168,-0.1588,-0.1588,-0.1587,-0.1587,0,0,-0.0791,-0.0901,-0.0902,-0.0958,-0.1041,-0.108,-0.1121,-0.1196,-0.1239,-0.1365,-0.1464,-0.1568,-0.1639,-0.1668,-0.169,-0.1687,-0.1722,-0.1653,-0.1652,-0.1671,-0.175,-0.1606,-0.16,-0.1677,-0.1677,-0.1678,-0.1789,0,-0.0804,-0.0881,-0.0947,-0.1032,-0.1091,-0.1128,-0.1182,-0.1243,-0.1324,-0.1418,-0.1501,-0.1614,-0.1658,-0.1696,-0.172,-0.1699,-0.1734,-0.1696,-0.1719,-0.1721,-0.1559,-0.16,-0.168,-0.1794,-0.1795,-0.1797,-0.1797,0,-0.0788,-0.0857,-0.0957,-0.108,-0.1113,-0.1175,-0.1239,-0.1295,-0.1385,-0.1457,-0.1578,-0.1653,-0.1725,-0.1721,-0.1792,-0.1757,-0.1773,-0.1758,-0.1762,-0.1614,-0.1586,-0.1723,-0.181,-0.1809,-0.1808,-0.1807,-0.1806,0,-0.0731,-0.0849,-0.0934,-0.0986,-0.1131,-0.118,-0.1232,-0.1326,-0.1373,-0.1484,-0.1542,-0.1671,-0.1745,-0.1757,-0.1804,-0.1778,-0.1838,-0.1806,-0.1719,-0.1713,-0.1799,-0.1794,-0.1851,-0.1851,-0.1851,-0.185,-0.185,0,-0.0714,-0.0781,-0.0917,-0.0996,-0.1047,-0.1185,-0.1261,-0.1294,-0.14,-0.1494,-0.1598,-0.1677,-0.1742,-0.1804,-0.1809,-0.1801,-0.1879,-0.1727,-0.1715,-0.1816,-0.1812,-0.1806,-0.18,-0.1855,-0.1854,-0.1853,-0.1852,0,-0.064,-0.0741,-0.0862,-0.103,-0.1047,-0.11,-0.1214,-0.127,-0.1385,-0.1483,-0.1514,-0.1677,-0.1746,-0.1809,-0.1839,-0.1818,-0.1792,-0.1781,-0.1933,-0.1928,-0.1673,-0.1667,-0.167,-0.1666,-0.1662,-0.1659,-0.1656,0,-0.0619,-0.0666,-0.0837,-0.0869,-0.096,-0.103,-0.1065,-0.1206,-0.129,-0.1492,-0.1544,-0.1656,-0.175,-0.1727,-0.1773,-0.1768,-0.175,-0.1758,-0.1663,-0.1658,-0.1648,-0.1648,-0.1648,-0.165,-0.1649,-0.1648,-0.1647,0,-0.0587,-0.0659,-0.0736,-0.0781,-0.0859,-0.0914,-0.1018,-0.1053,-0.126,-0.1365,-0.1511,-0.1551,-0.1642,-0.166,-0.1671,-0.1669,-0.1733,-0.1717,-0.1724,-0.1635,-0.1633,-0.1627,-0.1631,-0.1633,-0.1635,-0.1637,-0.1637,0,-0.0541,-0.0539,-0.0642,-0.0663,-0.0727,-0.0825,-0.0884,-0.1013,-0.1101,-0.135,-0.1398,-0.1538,-0.1657,-0.1615,-0.1629,-0.1589,-0.1547,-0.1495,-0.1513,-0.1528,-0.1416,-0.1389,-0.1302,0,0,0,0,0,-0.0486,-0.0481,-0.0502,-0.0576,-0.0639,-0.0709,-0.0857,-0.0953,-0.115,-0.1212,-0.1302,-0.1375,-0.1411,-0.1477,-0.1396,-0.1519,-0.1528,-0.1418,-0.1472,-0.1559,-0.1575,-0.1447,0,0,0,0,0,0,-0.0459,-0.0483,-0.0489,-0.0512,-0.0525,-0.063,-0.0743,-0.0884,-0.0933,-0.1116,-0.1136,-0.1258,-0.1293,-0.1412,-0.1354,-0.1363,-0.1363,-0.1483,-0.1479,-0.155,-0.1564,-0.1577,-0.1451,0,0,0,0,0]},{"header":{"parameterUnit":"m.s-1","parameterCategory":2,"la1":30.2991,"la2":30.254,"lo1":-89.0895,"lo2":-89.0444,"dy":0.0017,"dx":0.0017,"nx":28,"ny":28,"refTime":"2025-03-22T09:00:00:Z","depth":"4","parameterNumber":3,"parameterNumberName":"V-component_of_CURRENTS"},"data":[0,0,0,0,0,0,0,0,0,0,0,0,0,0,0,0,0,0,0,0,0,0,0,0,0,0,0,0,0,0,0,0,0,0,0,0,0,0,0,0,0,0,0,0,0,0,0,0,0,0,0,0,0,0,0,0,0,0,-0.0324,-0.0325,0,-0.0322,-0.0322,-0.0322,-0.0305,-0.0304,-0.0304,-0.0304,-0.0239,-0.0238,-0.0236,0,0,0,0,0,0,0,0,0,0,0,0,0,-0.0233,-0.0235,-0.0324,-0.0325,-0.0325,-0.0322,-0.0322,-0.0322,-0.0305,-0.0304,-0.0304,-0.0304,-0.024,-0.0238,-0.0236,0,0,0,0,0,0,0,0,0,0,0,0,0,-0.0254,-0.0236,-0.0324,-0.0317,-0.0317,-0.0322,-0.0322,-0.0322,-0.0305,-0.0304,-0.0304,-0.0304,-0.024,-0.0238,-0.0236,-0.0229,0,0,-0.0229,-0.0228,0,0,0,0,0,0,0,0,-0.0253,-0.0257,-0.0318,-0.0318,-0.0317,-0.0315,-0.0266,-0.0288,-0.0305,-0.0307,-0.0304,-0.0303,-0.026,-0.0256,-0.0255,-0.0226,-0.0223,-0.0229,-0.0227,-0.0226,-0.0226,0,0,0,0,0,0,0,-0.0252,-0.0257,-0.0321,-0.0319,-0.0318,-0.0287,-0.029,-0.027,-0.0283,-0.0307,-0.0306,-0.0309,-0.0259,-0.0257,-0.0253,-0.0222,-0.0229,-0.0227,-0.0225,-0.0224,-0.0162,-0.0161,0,0,0,0,0,0,-0.0261,-0.0256,-0.0322,-0.0322,-0.0286,-0.0289,-0.0292,-0.0314,-0.0285,-0.0281,-0.031,-0.0309,-0.0261,-0.0256,-0.025,-0.0246,-0.0226,-0.0224,-0.0223,-0.0162,-0.0162,-0.0161,0,0,0,0,0,0,-0.026,-0.0268,-0.0322,-0.0289,-0.0294,-0.0292,-0.0316,-0.0315,-0.0313,-0.0288,-0.0282,-0.0309,-0.026,-0.0254,-0.0244,-0.0243,-0.0223,-0.0221,-0.0162,-0.0162,-0.0161,-0.0232,0,0,0,0,0,0,-0.0257,-0.0268,-0.0287,-0.029,-0.0296,-0.0336,-0.0317,-0.0315,-0.0316,-0.0314,-0.0285,-0.0279,-0.026,-0.0248,-0.0242,-0.0239,-0.0219,-0.0163,-0.0162,-0.0162,-0.0231,-0.0235,-0.0238,0,0,0,0,0,-0.0254,-0.0286,-0.0289,-0.0297,-0.0324,-0.0337,-0.0337,-0.0332,-0.0316,-0.0325,-0.0306,-0.028,-0.0239,-0.0247,-0.024,-0.0236,-0.0163,-0.0162,-0.0162,-0.0229,-0.0234,-0.0238,0,0,0,0,0,0,-0.0254,-0.0288,-0.0291,-0.0331,-0.0338,-0.0335,-0.0343,-0.0334,-0.0326,-0.0324,-0.0289,-0.0282,-0.0272,-0.0241,-0.0251,-0.0213,-0.0191,-0.0189,-0.0244,-0.0249,-0.0252,-0.0246,-0.0217,0,0,0,0,0,-0.0266,-0.0303,-0.0315,-0.0348,-0.0351,-0.0345,-0.0348,-0.0349,-0.0342,-0.0338,-0.0316,-0.0286,-0.0263,-0.0248,-0.0228,-0.0213,-0.0153,-0.0199,-0.0203,-0.0206,-0.0194,-0.0097,-0.009,-0.0159,-0.0159,-0.0159,0,0,-0.0275,-0.0298,-0.0319,-0.0351,-0.0352,-0.0368,-0.0345,-0.0362,-0.0371,-0.0332,-0.0332,-0.0305,-0.0263,-0.0252,-0.0242,-0.0227,-0.016,-0.0205,-0.0209,-0.0195,-0.0095,-0.0088,-0.0082,-0.0159,-0.0159,-0.0159,0,0,-0.0307,-0.033,-0.0365,-0.0374,-0.0391,-0.0393,-0.0398,-0.0399,-0.0393,-0.0395,-0.0364,-0.0331,-0.0306,-0.0269,-0.0246,-0.025,-0.0188,-0.0247,-0.0256,-0.0163,-0.0156,-0.0149,-0.0088,-0.0075,-0.0242,-0.0242,-0.0242,0,-0.0312,-0.0365,-0.0374,-0.04,-0.041,-0.0404,-0.0428,-0.0425,-0.0424,-0.041,-0.0404,-0.033,-0.0305,-0.0257,-0.027,-0.0257,-0.0207,-0.025,-0.0168,-0.0159,-0.0151,-0.009,-0.0074,-0.0246,-0.0245,-0.0245,-0.0245,0,-0.036,-0.0401,-0.0417,-0.0455,-0.0464,-0.0489,-0.0486,-0.0491,-0.0479,-0.046,-0.0416,-0.037,-0.0311,-0.0306,-0.0298,-0.023,-0.0216,-0.0191,-0.016,-0.0149,-0.0085,-0.0068,-0.025,-0.0249,-0.0248,-0.0247,0,0,-0.0374,-0.0442,-0.0447,-0.0471,-0.0498,-0.051,-0.0525,-0.0525,-0.0511,-0.0486,-0.0445,-0.04,-0.0349,-0.0317,-0.028,-0.0213,-0.0135,-0.0191,-0.0185,-0.0137,0.005,0.0006,0.002,-0.0099,-0.0096,-0.0094,0.0063,0,-0.0407,-0.0479,-0.0496,-0.0547,-0.0578,-0.0573,-0.0577,-0.0571,-0.0549,-0.0511,-0.0433,-0.0387,-0.0358,-0.0329,-0.0251,-0.0163,-0.009,-0.0181,0.0039,0.0046,0.0001,0.0039,-0.0084,0.0076,0.008,0.0083,0.0085,0,-0.0441,-0.0491,-0.0556,-0.0595,-0.0601,-0.0624,-0.062,-0.0621,-0.0566,-0.0536,-0.0459,-0.0401,-0.0299,-0.0278,-0.0078,-0.014,-0.0049,0.002,0.0029,0.003,0.0034,0.0072,0.0116,0.0114,0.0112,0.0109,0.0108,0,-0.0451,-0.0523,-0.0581,-0.0597,-0.0638,-0.0653,-0.0662,-0.0631,-0.0613,-0.0548,-0.051,-0.0378,-0.0296,-0.0157,-0.0023,-0.004,0.0188,0.0197,0.0249,0.0247,0.027,0.0261,0.0351,0.0351,0.035,0.035,0.0349,0,-0.0476,-0.0519,-0.0597,-0.0626,-0.0669,-0.0677,-0.0684,-0.0673,-0.0626,-0.0589,-0.051,-0.0442,-0.026,-0.0122,-0.0005,0.0173,0.0224,0.0262,0.0296,0.0231,0.0217,0.028,0.027,0.0356,0.0354,0.0353,0.0352,0,-0.0477,-0.0529,-0.0602,-0.0667,-0.0682,-0.0712,-0.0721,-0.0707,-0.0665,-0.0613,-0.0591,-0.0457,-0.0281,-0.0113,0.0116,0.0202,0.036,0.0406,0.0307,0.033,0.0351,0.0336,0.0502,0.0502,0.0502,0.0502,0.0502,0,-0.0485,-0.0526,-0.0631,-0.0667,-0.0704,-0.0742,-0.0748,-0.0733,-0.0714,-0.0622,-0.0587,-0.0431,-0.0328,-0.0024,0.0134,0.037,0.0388,0.0467,0.0425,0.0357,0.0374,0.0358,0.0342,0.0502,0.0502,0.0502,0.0502,0,-0.0495,-0.0541,-0.0596,-0.0678,-0.0721,-0.0762,-0.0777,-0.0767,-0.0724,-0.0683,-0.0564,-0.0427,-0.023,-0.0025,0.0153,0.0314,0.0414,0.0468,0.0469,0.043,0.0359,0.0372,0.0357,0.0502,0.0502,0.0502,0.0502,0,-0.0493,-0.053,-0.0603,-0.0672,-0.0726,-0.0769,-0.0784,-0.0749,-0.0724,-0.0627,-0.059,-0.04,-0.0281,-0.0053,0.0107,0.0261,0.0299,0.0335,0.0344,0.0346,0.0235,0.0118,0.0233,0,0,0,0,0,-0.0487,-0.0521,-0.0581,-0.0661,-0.0717,-0.076,-0.0783,-0.0783,-0.0748,-0.0665,-0.0626,-0.0456,-0.0209,-0.0102,0.0051,0.0097,0.0313,0.0276,0.0356,0.0502,0.0502,0.0392,0,0,0,0,0,0,-0.0479,-0.0534,-0.0573,-0.0641,-0.0687,-0.0744,-0.0773,-0.0761,-0.0709,-0.0654,-0.0517,-0.0436,-0.019,-0.0288,0.0052,0.0098,0.0163,0.04,0.0402,0.0502,0.0502,0.0502,0.0388,0,0,0,0,0]}]]